Location: Unspecified
(41.1637°N, 24.2901°E)
Time: 14:30:09
(UTC+01:00)

ISS - Pass Details

Date: 01 December 2020
Orbit: 418 x 421 km, 51.6° (Epoch: 29 November)

Event Time Altitude Azimuth Distance (km) Brightness Sun altitude
Rises 17:28:36 0° 308° (NW) 2,365 0.6 -17.2°
Reaches altitude 10° 17:31:18 10° 331° (NNW) 1,500 -0.8 -17.7°
Enters shadow 17:32:58 16° 360° (N) 1,202 -1.6 -18.0°
